Yellowstone, WY

10:37 PM MDT on May 26, 2018 (GMT -0600)
Yellowstone

Weather History for KP60 - April, 2014

Change the Weather History Date:

Thursday, April 24, 2014

  Actual Average Record
Temperature  
Mean Temperature 30 °F 34 °F  
Max Temperature 36 °F 45 °F 52 °F (2005)
Min Temperature 24 °F 22 °F -1 °F (2011)
Degree Days  
Heating Degree Days 35 31  
Month to date heating degree days 900 831  
Since 1 July heating degree days 10326 10070  
Cooling Degree Days 0 0  
Month to date cooling degree days 0 0  
Year to date cooling degree days 0 0  
Moisture  
Dew Point 24 °F    
Average Humidity 80    
Maximum Humidity 100    
Minimum Humidity 59    
Precipitation  
Precipitation 0.30 in 0.07 in 0.31 in (2009)
Month to date precipitation 2.81 1.62  
Year to date precipitation 12.47 6.35  
Sea Level Pressure  
Sea Level Pressure 29.98 in    
Wind  
Wind Speed 3 mph (WSW)    
Max Wind Speed 13 mph    
Max Gust Speed 22 mph    
T = Trace of Precipitation, MM = Missing Value Source: NWS Daily Summary

Daily Weather History Graph

Daily Weather History Graph

Search for Another Location

Airport or City:

Astronomy

Apr. 24, 2014 Rise Set
Actual Time 6:22 AM MDT 8:17 PM MDT
Civil Twilight 5:51 AM MDT 8:49 PM MDT
Nautical Twilight 5:13 AM MDT 9:27 PM MDT
Astronomical Twilight 4:31 AM MDT 10:09 PM MDT
Moon 3:48 AM MDT (4/24) 3:26 PM MDT (4/24)
Length of Visible Light 14h 57m
Length of Day
13h 55m
Waning Crescent, 24% of the Moon is Illuminated
Apr 24
Waning Crescent
Apr 29
New
May 6
First Quarter
May 14
Full
May 21
Last Quarter

Hourly Weather History & Observations

Time (MDT) Temp. Windchill Dew Point Humidity Pressure Visibility Wind Dir Wind Speed Gust Speed Precip Events Conditions
12:56 AM 25.0 °F 18.1 °F 19.0 °F 78% 30.00 in - Variable 5.8 mph - N/A   Unknown
1:56 AM 25.0 °F 20.7 °F 19.0 °F 78% 30.01 in - Variable 3.5 mph - N/A   Unknown
2:56 AM 25.0 °F 17.1 °F 19.0 °F 78% 30.00 in - Variable 6.9 mph - N/A   Unknown
3:56 AM 26.1 °F 17.6 °F 19.0 °F 75% 30.01 in - West 8.1 mph - N/A   Unknown
4:56 AM 26.1 °F 18.4 °F 19.0 °F 75% 30.02 in - Variable 6.9 mph - N/A   Unknown
5:56 AM 27.0 °F 20.5 °F 19.0 °F 72% 30.01 in - Variable 5.8 mph - N/A   Unknown
6:56 AM 26.1 °F - 18.0 °F 71% 30.04 in - Calm Calm - N/A   Unknown
7:56 AM 28.0 °F - 19.0 °F 69% 30.04 in - Calm Calm - N/A   Unknown
8:56 AM 32.0 °F 25.6 °F 19.0 °F 59% 30.01 in - Variable 6.9 mph 17.3 mph N/A   Unknown
9:56 AM 32.0 °F - 19.9 °F 61% 30.00 in - Calm Calm - N/A   Unknown
10:56 AM 34.0 °F 29.8 °F 23.0 °F 64% 29.99 in - Variable 4.6 mph - N/A   Unknown
12:56 PM 33.1 °F 30.0 °F 26.1 °F 75% 29.97 in - Variable 3.5 mph - N/A   Unknown
1:56 PM 35.1 °F 30.1 °F 26.1 °F 70% 29.96 in - Variable 5.8 mph - 0.01 in   Unknown
2:56 PM 35.1 °F 29.3 °F 28.0 °F 76% 29.96 in - Variable 6.9 mph - N/A   Unknown
3:56 PM 34.0 °F 27.2 °F 27.0 °F 75% 29.96 in - WSW 8.1 mph - N/A   Unknown
4:56 PM 35.1 °F 31.0 °F 27.0 °F 72% 29.94 in - Variable 4.6 mph - N/A   Unknown
5:56 PM 34.0 °F 28.8 °F 28.0 °F 79% 29.96 in - Variable 5.8 mph - N/A   Unknown
6:56 PM 30.9 °F 27.5 °F 30.0 °F 96% 29.97 in - Variable 3.5 mph - 0.06 in   Unknown
7:56 PM 30.9 °F - 30.0 °F 96% 29.96 in - Calm Calm - 0.09 in   Unknown
8:56 PM 30.9 °F - 30.0 °F 96% 29.96 in - Calm Calm - 0.08 in   Unknown
9:56 PM 30.9 °F - 30.0 °F 96% 29.96 in - Calm Calm - 0.03 in   Unknown
10:56 PM 30.0 °F - 28.9 °F 96% 29.95 in - Calm Calm - 0.03 in   Unknown
11:56 PM 30.9 °F - 30.0 °F 96% 29.95 in - Calm Calm - N/A   Unknown